[TLELIST] Archives

 

[TLELIST] Current TLEs

October 3rd 2023 PDT

HST 1 20580U 90037B 23276.18985247 .00007069 00000-0 36640-3 0 9992 2 20580 28.4692 268.8790 0002687 112.1903 305.3771 15.14249824638102 ISS (ZARYA) 1 25544U 98067A 23276.26941150 .00021516 00000-0 38750-3 0 9999 2 25544 51.6417 153.1843 0005276 67.1452 38.0482 15.49728922418553 CXO 1 25867U 99040B 23279.01407764 .00000960 00000-0 00000+0 0 9996 2 25867 37.3871 182.6615 9048729 274.0211 0.2305 0.37811006 24758 ...Continue Reading

[TLELIST] Current TLEs

October 3rd 2023 PDT

HST 1 20580U 90037B 23276.18985247 .00007069 00000-0 36640-3 0 9992 2 20580 28.4692 268.8790 0002687 112.1903 305.3771 15.14249824638102 ISS (ZARYA) 1 25544U 98067A 23276.26941150 .00021516 00000-0 38750-3 0 9999 2 25544 51.6417 153.1843 0005276 67.1452 38.0482 15.49728922418553 CXO 1 25867U 99040B 23279.01407764 .00000960 00000-0 00000+0 0 9996 2 25867 37.3871 182.6615 9048729 274.0211 0.2305 0.37811006 24758 ...Continue Reading

[TLELIST] Current TLEs

October 2nd 2023 PDT

HST 1 20580U 90037B 23274.76061147 .00006900 00000-0 35767-3 0 9990 2 20580 28.4691 278.4035 0002682 97.8189 73.0697 15.14228913637628 ISS (ZARYA) 1 25544U 98067A 23275.40916667 .00000938 00000-0 24690-4 0 9993 2 25544 51.6389 157.4439 0005156 64.5744 278.1794 15.49680371418414 CXO 1 25867U 99040B 23276.36998489 .00000879 00000-0 00000-0 0 9990 2 25867 37.3734 183.0155 9048966 273.7242 0.3243 0.37809910 13596 ...Continue Reading

[TLELIST] Current TLEs

October 2nd 2023 PDT

HST 1 20580U 90037B 23274.76061147 .00006900 00000-0 35767-3 0 9990 2 20580 28.4691 278.4035 0002682 97.8189 73.0697 15.14228913637628 ISS (ZARYA) 1 25544U 98067A 23275.40916667 .00000938 00000-0 24690-4 0 9993 2 25544 51.6389 157.4439 0005156 64.5744 278.1794 15.49680371418414 CXO 1 25867U 99040B 23276.36998489 .00000879 00000-0 00000-0 0 9990 2 25867 37.3734 183.0155 9048966 273.7242 0.3243 0.37809910 13596 ...Continue Reading

[TLELIST] Current TLEs

October 2nd 2023 PDT

HST 1 20580U 90037B 23274.76061147 .00006900 00000-0 35767-3 0 9990 2 20580 28.4691 278.4035 0002682 97.8189 73.0697 15.14228913637628 ISS (ZARYA) 1 25544U 98067A 23275.40916667 .00000938 00000-0 24690-4 0 9993 2 25544 51.6389 157.4439 0005156 64.5744 278.1794 15.49680371418414 CXO 1 25867U 99040B 23276.36998489 .00000879 00000-0 00000-0 0 9990 2 25867 37.3734 183.0155 9048966 273.7242 0.3243 0.37809910 13596 ...Continue Reading

[TLELIST] Current TLEs

October 1st 2023 PDT

HST 1 20580U 90037B 23273.50113635 .00006155 00000-0 31812-3 0 9990 2 20580 28.4692 286.7965 0002641 84.9220 46.6564 15.14210466637691 ISS (ZARYA) 1 25544U 98067A 23274.21251013 .00057819 00000-0 10254-2 0 9997 2 25544 51.6408 163.3694 0005202 65.8884 76.5711 15.49662113418239 CXO 1 25867U 99040B 23276.36920278 .00000879 00000-0 00000+0 0 9990 2 25867 37.3758 183.0353 9048941 273.7050 0.2188 0.37812691 24748 ...Continue Reading

[TLELIST] Current TLEs

October 1st 2023 PDT

HST 1 20580U 90037B 23273.50113635 .00006155 00000-0 31812-3 0 9990 2 20580 28.4692 286.7965 0002641 84.9220 46.6564 15.14210466637691 ISS (ZARYA) 1 25544U 98067A 23274.21251013 .00057819 00000-0 10254-2 0 9997 2 25544 51.6408 163.3694 0005202 65.8884 76.5711 15.49662113418239 CXO 1 25867U 99040B 23276.36920278 .00000879 00000-0 00000+0 0 9990 2 25867 37.3758 183.0353 9048941 273.7050 0.2188 0.37812691 24748 ...Continue Reading

[TLELIST] Current TLEs

September 30th 2023 PDT

HST 1 20580U 90037B 23272.44218154 .00005751 00000-0 29673-3 0 9997 2 20580 28.4694 293.8532 0002616 74.0641 33.5155 15.14196740637274 ISS (ZARYA) 1 25544U 98067A 23273.24545508 .00067079 00000-0 11884-2 0 9993 2 25544 51.6412 168.1604 0005228 59.8641 84.1972 15.49628391418087 CXO 1 25867U 99040B 23276.36920278 .00000879 00000-0 00000+0 0 9990 2 25867 37.3758 183.0353 9048941 273.7050 0.2188 0.37812691 24748 ...Continue Reading

[TLELIST] Current TLEs

September 30th 2023 PDT

HST 1 20580U 90037B 23272.44218154 .00005751 00000-0 29673-3 0 9997 2 20580 28.4694 293.8532 0002616 74.0641 33.5155 15.14196740637274 ISS (ZARYA) 1 25544U 98067A 23273.24545508 .00067079 00000-0 11884-2 0 9993 2 25544 51.6412 168.1604 0005228 59.8641 84.1972 15.49628391418087 CXO 1 25867U 99040B 23276.36920278 .00000879 00000-0 00000+0 0 9990 2 25867 37.3758 183.0353 9048941 273.7050 0.2188 0.37812691 24748 ...Continue Reading

[TLELIST] Current TLEs

September 29th 2023 PDT

HST 1 20580U 90037B 23271.45925194 .00005733 00000-0 29589-3 0 9992 2 20580 28.4696 300.4032 0002580 64.3532 74.5224 15.14184960637124 ISS (ZARYA) 1 25544U 98067A 23272.21223998 .00028711 00000-0 51107-3 0 9998 2 25544 51.6412 173.2723 0005697 69.3164 66.8459 15.49885187417929 CXO 1 25867U 99040B 23273.72941491 .00000914 00000-0 00000+0 0 9997 2 25867 37.3608 183.4492 9047147 273.3632 0.8912 0.37809167 24733 ...Continue Reading
  • This mailing list is a public mailing list - anyone may join or leave, at any time.
  • This mailing list is announce-only.

International Space Station (ISS) / Hubble Space Telescope (HST) / Chandra X-Ray Observatory Orbital Data via EMAIL

Privacy Policy:

Private list